Weather in Andreevka

Kazakhstan     51°40′00″N   70°24′42″E
temp.,
°C
wind,
m/s
gust,
m/s
humid.,
%
clouds,
%
prec.,
mm/h
press.,
hPa
HPBL,
m
15 april, thu
thu1500:00+2nnw12740 0.0 103210
03:00+2n11690 0.0 103110
06:00+2ne11730 0.0 103110
09:00+6n00580 0.0 103070
12:00+10wsw11520 0.0 1028323
15:00+14wsw11390 0.0 1026639
18:00+15wnw11370 0.0 1025620
21:00+10nne22600 0.0 102510
16 april, fri
fri1600:00+8se11650 0.0 102310
03:00+7s22610 0.0 102210
06:00+6sw11630 0.0 102210
09:00+9wsw11560 0.0 102184
12:00+13w22440 0.0 1019461
15:00+16nw33335 0.0 1018883
18:00+15nnw343744 0.0 1017876
21:00+12nnw225792 0.0 101815
17 april, sat
sat1700:00+7ne81190100 0.0 1020450
03:00+6ene6985100 0.0 1021564
06:00+5ene5784100 0.0 1022565
09:00+5ene4581100 0.0 1023609
12:00+6ene337899 0.0 1024727
15:00+8ne336689 0.0 1023910
18:00+9nne3362100 0.0 10231116
21:00+8nne116392 0.0 102315
18 april, sun
sun1800:00+7nw11678 0.0 102210
03:00+4nnw117541 0.0 102110
06:00+4sw22795 0.0 102011
09:00+6wsw46725 0.0 1019354
12:00+11w695835 0.0 10161529
15:00+12w8115193 0.0 10142017
18:00+11w7115828 0.0 10131085
21:00+8nw6117156 0.2 1015437
19 april, mon
mon1900:00+3n710786 0.2 1018768
03:00−3nne610635 0.0 1022666
06:00−4nne68555 0.0 1024700
09:00−3nne66495 0.0 1026930
12:00−1nne55352 0.0 10261355
15:00+1nne55300 0.0 10261718
18:000nne66325 0.0 10261801
21:00−2ne68437 0.0 1028823